Meteo Giornale » Osservazioni meteo Stati Uniti (USA) » Fulton Oswego
ore: 13:54 - Osservazioni Meteo Fulton Oswego
Lat. 43° 21' N Lon. 76° 23' W Alt. 145 metri s.l.m.
26 °C
Coperto
Temp. 24 Ore
19 °C
26 °C
Nord/Nord-Est
7.4 Km/h
Dew point 22 °C
Umidità 78 %
Visibilità 10 Km
Il sole sorge alle ore 06:29
Il sole tramonta alle ore 19:41
| Data e Ora | Cielo e Fenomeni | T °C | DP °C | Um. % | Pres. hPa | Vis. km | Vento km/h | |
|---|---|---|---|---|---|---|---|---|
| Oggi h: 13:54 | Coperto | 26 | 22 | 78 | 1014 | 10 | N/NE 7.4 | |
| Oggi h: 12:54 | Coperto | 26 | 22 | 78 | 1014 | 10 | N 0 | |
| Oggi h: 12:30 | Coperto | 24 | 21 | 83 | 1014 | 10 | N 0 | |
| Oggi h: 12:11 | Coperto | 24 | 21 | 83 | 1014 | 10 | N 0 | |
| Oggi h: 11:54 | Molto Nuvoloso | 24 | 21 | 83 | 1014 | 10 | N 0 | |
| Oggi h: 10:54 | Nuvoloso | 22 | 20 | 88 | 1014 | 10 | N 5.5 | |
| Oggi h: 10:29 | Molto Nuvoloso | 21 | 19 | 88 | 1013 | 10 | N 7.4 | |
| Oggi h: 09:54 | Coperto | 20 | 19 | 93 | 1014 | 14 | N 0 | |
| Oggi h: 08:54 | Coperto | 19 | 19 | 100 | 1014 | 11 | N 5.5 | |
| Oggi h: 07:54 | Foschia | 19 | 19 | 100 | 1014 | 8 | N 5.5 | |
| Oggi h: 06:54 | Foschia | 19 | 19 | 100 | 1014 | 10 | N 0 | |
| Oggi h: 05:54 | Foschia | 19 | 19 | 100 | 1014 | 8 | N 5.5 | |
| Oggi h: 05:28 | Pioggia Foschia | 19 | 19 | 100 | 1014 | 6 | N 0 | |
| Oggi h: 05:07 | Pioggia Foschia | 19 | 19 | 100 | 1014 | 5 | N 0 | |
| Oggi h: 04:54 | Pioggia Foschia | 19 | 19 | 100 | 1014 | 5 | N 0 | |
| Oggi h: 04:13 | Foschia | 19 | 18 | 93 | 1014 | 6 | N 5.5 | |
| Oggi h: 04:05 | Foschia | 19 | 18 | 93 | 1014 | 2 | N 5.5 | |
| Oggi h: 03:54 | Foschia | 19 | 18 | 93 | 1014 | 6 | N 0 | |
| Oggi h: 02:54 | Pioggia Foschia | 19 | 18 | 93 | 1015 | 5 | N 5.5 | |
| Oggi h: 02:50 | Pioggia Foschia | 19 | 18 | 93 | 1015 | 6 | N 5.5 | |
| Oggi h: 01:54 | Coperto | 19 | 18 | 93 | 1015 | 11 | N 0 | |
| Oggi h: 00:54 | Coperto | 19 | 18 | 93 | 1016 | 10 | N 0 | |
| Oggi h: 00:26 | Coperto | 19 | 18 | 93 | 1016 | 10 | N 0 | |
| Ieri h: 23:54 | Coperto | 19 | 17 | 88 | 1016 | 13 | N 0 | |
| Ieri h: 22:54 | Coperto | 19 | 17 | 88 | 1017 | 10 | N 0 | |
| Ieri h: 21:54 | Coperto | 19 | 17 | 88 | 1017 | 10 | N 0 | |
| Ieri h: 20:54 | Coperto | 19 | 17 | 88 | 1017 | 10 | N 0 | |
| Ieri h: 19:54 | Coperto | 19 | 18 | 93 | 1016 | 10 | N 5.5 | |
| Ieri h: 19:39 | Coperto | 19 | 18 | 93 | 1016 | 10 | N 5.5 | |
| Ieri h: 19:08 | Coperto | 20 | 18 | 88 | 1017 | 10 | N 0 | |
| Ieri h: 18:54 | Coperto | 20 | 18 | 88 | 1017 | 10 | N 0 | |
| Ieri h: 17:54 | Coperto | 20 | 18 | 88 | 1017 | 10 | N 0 | |
| Ieri h: 16:54 | Coperto | 19 | 17 | 88 | 1017 | 10 | N 0 | |
| Ieri h: 15:54 | Coperto | 21 | 17 | 77 | 1018 | 10 | N 5.5 | |
| Ieri h: 14:54 | Coperto | 20 | 17 | 82 | 1018 | 10 | N 0 | |



